Fort Collins, CO

10:56 PM MDT on September 25, 2016 (GMT -0600)
Fort Collins-Loveland Municipal

Weather History for KFNL - May, 2013

Change the Weather History Date:

Monday, May 13, 2013

  Actual Average Record
Temperature  
Mean Temperature 70 °F -  
Max Temperature 86 °F - 86 °F (2001)
Min Temperature 53 °F - 28 °F (2000)
Degree Days  
Heating Degree Days 0    
Month to date heating degree days  
Cooling Degree Days 4    
Month to date cooling degree days  
Growing Degree Days 20 (Base 50)    
Moisture  
Dew Point 42 °F    
Average Humidity 39    
Maximum Humidity 77    
Minimum Humidity 19    
Precipitation  
Precipitation 0.00 in - 0.16 in (2006)
Sea Level Pressure  
Sea Level Pressure 30.13 in    
Wind  
Wind Speed 3 mph (SW)    
Max Wind Speed 12 mph    
Max Gust Speed 16 mph    
Visibility 10 miles    
Events      
T = Trace of Precipitation, MM = Missing Value Source: NWS Daily Summary

Daily Weather History Graph

Daily Weather History Graph

Search for Another Location

Airport or City:

Trip Planner

Search our weather history database for the weather conditions in past years. The results will help you decide how hot, cold, wet, or windy it might be!

Date:

Astronomy

May. 13, 2013 Rise Set
Actual Time 5:45 AM MDT 8:08 PM MDT
Civil Twilight 5:14 AM MDT 8:38 PM MDT
Nautical Twilight 4:36 AM MDT 9:17 PM MDT
Astronomical Twilight 3:54 AM MDT 9:59 PM MDT
Moon 8:33 AM MDT (5/13) 11:19 PM MDT (5/13)
Length of Visible Light 15h 24m
Length of Day
14h 22m
Waxing Crescent, 12% of the Moon is Illuminated
May 13
Waxing Crescent
May 17
First Quarter
May 24
Full
May 31
Last Quarter
Jun 8
New

Hourly Weather History & Observations

Time (MDT) Temp. Dew Point Humidity Pressure Visibility Wind Dir Wind Speed Gust Speed Precip Events Conditions
12:15 AM 60.8 °F 37.4 °F 42% 30.14 in 10.0 mi Calm Calm - N/A   Clear
12:35 AM 57.2 °F 39.2 °F 51% 30.14 in 10.0 mi Calm Calm - N/A   Clear
12:55 AM 57.2 °F 39.2 °F 51% 30.14 in 10.0 mi Calm Calm - N/A   Clear
1:15 AM 60.8 °F 39.2 °F 45% 30.14 in 10.0 mi Calm Calm - N/A   Clear
1:35 AM 57.2 °F 39.2 °F 51% 30.14 in 10.0 mi Calm Calm - N/A   Clear
1:55 AM 59.0 °F 37.4 °F 45% 30.13 in 10.0 mi Calm Calm - N/A   Clear
2:15 AM 57.2 °F 37.4 °F 48% 30.14 in 10.0 mi Calm Calm - N/A   Clear
2:35 AM 60.8 °F 37.4 °F 42% 30.14 in 10.0 mi Calm Calm - N/A   Clear
2:55 AM 64.4 °F 37.4 °F 37% 30.13 in 10.0 mi NNW 3.5 mph - N/A   Clear
3:15 AM 64.4 °F 35.6 °F 34% 30.14 in 10.0 mi North 5.8 mph - N/A   Clear
3:35 AM 57.2 °F 37.4 °F 48% 30.14 in 10.0 mi SSW 3.5 mph - N/A   Clear
3:55 AM 59.0 °F 39.2 °F 48% 30.14 in 10.0 mi WSW 3.5 mph - N/A   Clear
4:15 AM 55.4 °F 37.4 °F 51% 30.14 in 10.0 mi NNE 4.6 mph - N/A   Clear
4:35 AM 57.2 °F 37.4 °F 48% 30.14 in 10.0 mi Calm Calm - N/A   Clear
4:55 AM 59.0 °F 37.4 °F 45% 30.14 in 10.0 mi Calm Calm - N/A   Clear
5:15 AM 59.0 °F 35.6 °F 42% 30.15 in 10.0 mi Calm Calm - N/A   Clear
5:35 AM 55.4 °F 37.4 °F 51% 30.15 in 10.0 mi Calm Calm - N/A   Clear
5:55 AM 57.2 °F 37.4 °F 48% 30.16 in 10.0 mi NW 3.5 mph - N/A   Clear
6:15 AM 55.4 °F 42.8 °F 63% 30.16 in 10.0 mi NNW 6.9 mph - N/A   Clear
6:35 AM 53.6 °F 41.0 °F 62% 30.17 in 10.0 mi Calm Calm - N/A   Clear
6:55 AM 53.6 °F 46.4 °F 77% 30.18 in 10.0 mi SW 3.5 mph - N/A   Clear
7:15 AM 55.4 °F 46.4 °F 72% 30.18 in 10.0 mi Calm Calm - N/A   Clear
7:35 AM 59.0 °F 46.4 °F 63% 30.19 in 10.0 mi Calm Calm - N/A   Clear
7:55 AM 60.8 °F 44.6 °F 55% 30.19 in 10.0 mi Calm Calm - N/A   Clear
8:15 AM 64.4 °F 44.6 °F 49% 30.19 in 10.0 mi Calm Calm - N/A   Clear
8:35 AM 68.0 °F 44.6 °F 43% 30.19 in 10.0 mi NNW 3.5 mph - N/A   Clear
8:55 AM 69.8 °F 44.6 °F 40% 30.19 in 10.0 mi North 5.8 mph - N/A   Clear
9:15 AM 71.6 °F 46.4 °F 41% 30.20 in 10.0 mi NNW 5.8 mph - N/A   Clear
9:35 AM 71.6 °F 44.6 °F 38% 30.19 in 10.0 mi North 6.9 mph - N/A   Clear
10:15 AM 75.2 °F 46.4 °F 36% 30.19 in 10.0 mi North 5.8 mph - N/A   Clear
10:35 AM 78.8 °F 44.6 °F 30% 30.19 in 10.0 mi North 8.1 mph - N/A   Clear
10:55 AM 80.6 °F 42.8 °F 26% 30.19 in 10.0 mi North 9.2 mph - N/A   Clear
11:15 AM 80.6 °F 42.8 °F 26% 30.19 in 10.0 mi NNE 10.4 mph - N/A   Clear
11:35 AM 82.4 °F 42.8 °F 25% 30.18 in 10.0 mi NE 10.4 mph - N/A   Clear
11:55 AM 82.4 °F 41.0 °F 23% 30.18 in 10.0 mi ENE 11.5 mph - N/A   Clear
12:15 PM 82.4 °F 39.2 °F 21% 30.17 in 10.0 mi NW 4.6 mph 16.1 mph N/A   Clear
12:35 PM 82.4 °F 41.0 °F 23% 30.16 in 10.0 mi North 8.1 mph - N/A   Clear
12:55 PM 84.2 °F 41.0 °F 22% 30.15 in 10.0 mi NNE 8.1 mph - N/A   Clear
1:35 PM 82.4 °F 37.4 °F 20% 30.14 in 10.0 mi SSW 5.8 mph - N/A   Clear
2:35 PM 86.0 °F 39.2 °F 19% 30.13 in 10.0 mi South 4.6 mph - N/A   Clear
2:55 PM 84.2 °F 41.0 °F 22% 30.11 in 10.0 mi SE 4.6 mph - N/A   Clear
3:15 PM 84.2 °F 39.2 °F 20% 30.10 in 10.0 mi WNW 3.5 mph - N/A   Clear
3:35 PM 86.0 °F 39.2 °F 19% 30.09 in 10.0 mi Calm Calm - N/A   Clear
3:55 PM 84.2 °F 39.2 °F 20% 30.08 in 10.0 mi SSE 3.5 mph - N/A   Clear
4:35 PM 84.2 °F 39.2 °F 20% 30.07 in 10.0 mi South 3.5 mph - N/A   Clear
4:55 PM 82.4 °F 39.2 °F 21% 30.07 in 10.0 mi WSW 4.6 mph - N/A   Clear
5:35 PM 84.2 °F 37.4 °F 19% 30.07 in 10.0 mi Calm Calm - N/A   Clear
6:15 PM 82.4 °F 41.0 °F 23% 30.06 in 10.0 mi Calm Calm - N/A   Clear
6:35 PM 78.8 °F 50.0 °F 36% 30.06 in 10.0 mi South 6.9 mph - N/A   Clear
6:55 PM 75.2 °F 48.2 °F 38% 30.06 in 10.0 mi South 6.9 mph - N/A   Clear
7:15 PM 75.2 °F 51.8 °F 44% 30.06 in 10.0 mi South 6.9 mph - N/A   Clear
7:35 PM 75.2 °F 48.2 °F 38% 30.06 in 10.0 mi South 5.8 mph - N/A   Clear
7:55 PM 75.2 °F 46.4 °F 36% 30.07 in 10.0 mi South 5.8 mph - N/A   Clear
8:15 PM 75.2 °F 42.8 °F 31% 30.07 in 10.0 mi South 5.8 mph - N/A   Clear
8:35 PM 73.4 °F 44.6 °F 36% 30.07 in 10.0 mi South 5.8 mph - N/A   Clear
8:55 PM 73.4 °F 42.8 °F 33% 30.08 in 10.0 mi South 4.6 mph - N/A   Clear
9:15 PM 71.6 °F 41.0 °F 33% 30.08 in 10.0 mi South 4.6 mph - N/A   Clear
9:35 PM 71.6 °F 42.8 °F 35% 30.08 in 10.0 mi Calm Calm - N/A   Clear
9:55 PM 71.6 °F 42.8 °F 35% 30.08 in 10.0 mi South 3.5 mph - N/A   Clear
10:15 PM 68.0 °F 42.8 °F 40% 30.07 in 10.0 mi SSE 6.9 mph - N/A   Clear
10:35 PM 64.4 °F 44.6 °F 49% 30.07 in 10.0 mi South 8.1 mph - N/A   Clear
10:55 PM 60.8 °F 46.4 °F 59% 30.06 in 10.0 mi South 6.9 mph - N/A   Clear
11:15 PM 62.6 °F 46.4 °F 55% 30.06 in 10.0 mi South 5.8 mph - N/A   Clear
11:35 PM 60.8 °F 46.4 °F 59% 30.05 in 10.0 mi SSW 4.6 mph - N/A   Clear
11:55 PM 64.4 °F 42.8 °F 45% 30.05 in 10.0 mi Calm Calm - N/A   Clear